Time,TemperatureF,DewpointF,PressureIn,WindDirection,WindDirectionDegrees,WindSpeedMPH,WindSpeedGustMPH,Humidity,HourlyPrecipIn,Conditions,Clouds,dailyrainin,SolarRadiationWatts/m^2,SoftwareType,DateUTC
2013-02-05 00:00:00,15.7,-4.4,29.85,WNW,300,5.0,10.0,40,0.00,,,0.00,0,Wunderground v.1.15,2013-02-05 05:00:00,
2013-02-05 00:02:00,15.7,-3.9,29.86,West,265,4.0,10.0,41,0.00,,,0.00,0,Wunderground v.1.15,2013-02-05 05:02:00,
2013-02-05 00:03:00,15.7,-3.9,29.86,West,273,4.0,10.0,41,0.00,,,0.00,0,Wunderground v.1.15,2013-02-05 05:03:00,
2013-02-05 00:04:00,15.7,-3.9,29.86,South,174,4.0,10.0,41,0.00,,,0.00,0,Wunderground v.1.15,2013-02-05 05:04:00,
2013-02-05 00:10:00,15.6,-4.5,29.86,SW,217,6.0,6.0,40,0.00,,,0.00,0,Wunderground v.1.15,2013-02-05 05:10:00,
2013-02-05 00:16:00,15.5,-4.6,29.86,WNW,287,6.0,13.0,40,0.00,,,0.00,0,Wunderground v.1.15,2013-02-05 05:16:00,
2013-02-05 00:22:00,15.4,-4.7,29.86,WNW,298,5.0,5.0,40,0.00,,,0.00,0,Wunderground v.1.15,2013-02-05 05:22:00,
2013-02-05 00:27:00,15.4,-4.7,29.86,WSW,239,5.0,12.0,40,0.00,,,0.00,0,Wunderground v.1.15,2013-02-05 05:27:00,
2013-02-05 00:33:00,15.3,-4.8,29.86,NW,319,5.0,6.0,40,0.00,,,0.00,0,Wunderground v.1.15,2013-02-05 05:33:00,
2013-02-05 00:39:00,15.3,-4.8,29.86,West,262,5.0,9.0,40,0.00,,,0.00,0,Wunderground v.1.15,2013-02-05 05:39:00,
2013-02-05 00:44:00,15.2,-4.8,29.86,WSW,238,6.0,14.0,40,0.00,,,0.00,0,Wunderground v.1.15,2013-02-05 05:44:00,
2013-02-05 00:49:00,15.0,-5.0,29.86,West,271,5.0,14.0,40,0.00,,,0.00,0,Wunderground v.1.15,2013-02-05 05:49:00,
2013-02-05 00:54:00,14.9,-5.1,29.87,WSW,257,4.0,13.0,40,0.00,,,0.00,0,Wunderground v.1.15,2013-02-05 05:54:00,
2013-02-05 00:59:00,14.9,-4.6,29.87,WNW,294,5.0,13.0,41,0.00,,,0.00,0,Wunderground v.1.15,2013-02-05 05:59:00,
2013-02-05 01:05:00,14.8,-4.7,29.87,West,267,4.0,5.0,41,0.00,,,0.00,0,Wunderground v.1.15,2013-02-05 06:05:00,
2013-02-05 01:10:00,14.7,-4.8,29.87,West,263,3.0,3.0,41,0.00,,,0.00,0,Wunderground v.1.15,2013-02-05 06:10:00,
2013-02-05 01:16:00,14.5,-4.5,29.87,WSW,258,3.0,4.0,42,0.00,,,0.00,0,Wunderground v.1.15,2013-02-05 06:16:00,
2013-02-05 01:22:00,14.5,-4.5,29.88,SW,228,3.0,8.0,42,0.00,,,0.00,0,Wunderground v.1.15,2013-02-05 06:22:00,
2013-02-05 01:28:00,14.7,-4.8,29.88,West,281,4.0,8.0,41,0.00,,,0.00,0,Wunderground v.1.15,2013-02-05 06:28:00,
2013-02-05 01:33:00,14.7,-4.8,29.88,WNW,294,5.0,5.0,41,0.00,,,0.00,0,Wunderground v.1.15,2013-02-05 06:33:00,
2013-02-05 01:39:00,14.6,-4.9,29.89,West,261,5.0,10.0,41,0.00,,,0.00,0,Wunderground v.1.15,2013-02-05 06:39:00,
2013-02-05 01:44:00,14.6,-5.4,29.89,WSW,252,6.0,6.0,40,0.00,,,0.00,0,Wunderground v.1.15,2013-02-05 06:44:00,
2013-02-05 01:50:00,14.5,-5.5,29.89,WSW,251,6.0,6.0,40,0.00,,,0.00,0,Wunderground v.1.15,2013-02-05 06:50:00,
2013-02-05 01:55:00,14.4,-5.6,29.89,West,277,5.0,11.0,40,0.00,,,0.00,0,Wunderground v.1.15,2013-02-05 06:55:00,
2013-02-05 02:01:00,14.2,-5.2,29.90,SW,231,4.0,4.0,41,0.00,,,0.00,0,Wunderground v.1.15,2013-02-05 07:01:00,
2013-02-05 02:07:00,14.1,-5.8,29.90,SW,231,4.0,13.0,40,0.00,,,0.00,0,Wunderground v.1.15,2013-02-05 07:07:00,
2013-02-05 02:12:00,14.1,-5.3,29.90,WSW,243,4.0,4.0,41,0.00,,,0.00,0,Wunderground v.1.15,2013-02-05 07:12:00,
2013-02-05 02:18:00,14.0,-5.4,29.90,SW,217,4.0,7.0,41,0.00,,,0.00,0,Wunderground v.1.15,2013-02-05 07:18:00,
2013-02-05 02:23:00,14.0,-5.4,29.90,WSW,246,4.0,4.0,41,0.00,,,0.00,0,Wunderground v.1.15,2013-02-05 07:23:00,
2013-02-05 02:28:00,13.9,-5.5,29.90,WSW,247,3.0,4.0,41,0.00,,,0.00,0,Wunderground v.1.15,2013-02-05 07:28:00,
2013-02-05 02:33:00,13.8,-5.6,29.90,West,265,2.0,4.0,41,0.00,,,0.00,0,Wunderground v.1.15,2013-02-05 07:33:00,
2013-02-05 02:39:00,13.7,-5.7,29.90,NW,305,3.0,7.0,41,0.00,,,0.00,0,Wunderground v.1.15,2013-02-05 07:39:00,
2013-02-05 02:45:00,13.7,-5.7,29.90,SSW,213,3.0,4.0,41,0.00,,,0.00,0,Wunderground v.1.15,2013-02-05 07:45:00,
2013-02-05 02:50:00,13.6,-5.3,29.90,West,279,3.0,3.0,42,0.00,,,0.00,0,Wunderground v.1.15,2013-02-05 07:50:00,
2013-02-05 02:56:00,13.6,-5.3,29.90,West,281,3.0,5.0,42,0.00,,,0.00,0,Wunderground v.1.15,2013-02-05 07:56:00,
2013-02-05 03:02:00,13.6,-5.3,29.91,WNW,287,3.0,7.0,42,0.00,,,0.00,0,Wunderground v.1.15,2013-02-05 08:02:00,
2013-02-05 03:07:00,13.6,-5.8,29.91,West,267,4.0,12.0,41,0.00,,,0.00,0,Wunderground v.1.15,2013-02-05 08:07:00,
2013-02-05 03:12:00,13.6,-5.8,29.91,West,265,5.0,9.0,41,0.00,,,0.00,0,Wunderground v.1.15,2013-02-05 08:12:00,
2013-02-05 03:17:00,13.5,-5.9,29.91,NNW,333,5.0,9.0,41,0.00,,,0.00,0,Wunderground v.1.15,2013-02-05 08:17:00,
2013-02-05 03:22:00,13.5,-5.4,29.91,WSW,252,4.0,5.0,42,0.00,,,0.00,0,Wunderground v.1.15,2013-02-05 08:22:00,
2013-02-05 03:28:00,13.2,-5.2,29.91,SW,233,3.0,5.0,43,0.00,,,0.00,0,Wunderground v.1.15,2013-02-05 08:28:00,
2013-02-05 03:34:00,13.1,-5.7,29.92,West,281,2.0,7.0,42,0.00,,,0.00,0,Wunderground v.1.15,2013-02-05 08:34:00,
2013-02-05 03:40:00,13.1,-5.7,29.92,West,260,3.0,3.0,42,0.00,,,0.00,0,Wunderground v.1.15,2013-02-05 08:40:00,
2013-02-05 03:45:00,12.8,-5.5,29.92,West,267,2.0,4.0,43,0.00,,,0.00,0,Wunderground v.1.15,2013-02-05 08:45:00,
2013-02-05 03:50:00,12.8,-5.0,29.92,West,259,2.0,5.0,44,0.00,,,0.00,0,Wunderground v.1.15,2013-02-05 08:50:00,
2013-02-05 03:56:00,12.9,-5.4,29.92,NW,311,3.0,5.0,43,0.00,,,0.00,0,Wunderground v.1.15,2013-02-05 08:56:00,
2013-02-05 04:02:00,13.0,-5.3,29.92,West,279,3.0,10.0,43,0.00,,,0.00,0,Wunderground v.1.15,2013-02-05 09:02:00,
2013-02-05 04:08:00,13.0,-5.3,29.92,West,277,4.0,10.0,43,0.00,,,0.00,0,Wunderground v.1.15,2013-02-05 09:08:00,
2013-02-05 04:14:00,13.0,-5.3,29.93,NW,316,3.0,6.0,43,0.00,,,0.00,0,Wunderground v.1.15,2013-02-05 09:14:00,
2013-02-05 04:19:00,12.8,-5.5,29.93,WNW,296,3.0,6.0,43,0.00,,,0.00,0,Wunderground v.1.15,2013-02-05 09:19:00,
2013-02-05 04:24:00,12.8,-5.5,29.93,West,275,3.0,6.0,43,0.00,,,0.00,0,Wunderground v.1.15,2013-02-05 09:24:00,
2013-02-05 04:29:00,12.7,-5.1,29.93,West,260,3.0,6.0,44,0.00,,,0.00,0,Wunderground v.1.15,2013-02-05 09:29:00,
2013-02-05 04:35:00,12.8,-5.5,29.93,WSW,257,3.0,8.0,43,0.00,,,0.00,0,Wunderground v.1.15,2013-02-05 09:35:00,
2013-02-05 04:40:00,12.7,-5.6,29.93,West,271,3.0,3.0,43,0.00,,,0.00,0,Wunderground v.1.15,2013-02-05 09:40:00,
2013-02-05 04:46:00,12.6,-5.7,29.93,WNW,285,3.0,5.0,43,0.00,,,0.00,0,Wunderground v.1.15,2013-02-05 09:46:00,
2013-02-05 04:52:00,12.6,-5.7,29.94,NW,315,2.0,3.0,43,0.00,,,0.00,0,Wunderground v.1.15,2013-02-05 09:52:00,
2013-02-05 04:57:00,12.6,-5.7,29.94,WNW,302,3.0,8.0,43,0.00,,,0.00,0,Wunderground v.1.15,2013-02-05 09:57:00,
2013-02-05 05:03:00,12.4,-5.4,29.94,WNW,286,3.0,9.0,44,0.00,,,0.00,0,Wunderground v.1.15,2013-02-05 10:03:00,
2013-02-05 05:10:00,12.4,-5.4,29.94,WNW,298,3.0,9.0,44,0.00,,,0.00,0,Wunderground v.1.15,2013-02-05 10:10:00,
2013-02-05 05:15:00,12.3,-6.0,29.94,NW,306,3.0,4.0,43,0.00,,,0.00,0,Wunderground v.1.15,2013-02-05 10:15:00,
2013-02-05 05:20:00,12.2,-5.6,29.94,WSW,252,3.0,3.0,44,0.00,,,0.00,0,Wunderground v.1.15,2013-02-05 10:20:00,
2013-02-05 05:25:00,11.9,-5.4,29.95,WNW,294,1.0,3.0,45,0.00,,,0.00,0,Wunderground v.1.15,2013-02-05 10:25:00,
2013-02-05 05:31:00,11.9,-5.9,29.95,West,267,2.0,2.0,44,0.00,,,0.00,0,Wunderground v.1.15,2013-02-05 10:31:00,
2013-02-05 05:36:00,11.7,-5.6,29.95,West,269,2.0,4.0,45,0.00,,,0.00,0,Wunderground v.1.15,2013-02-05 10:36:00,
2013-02-05 05:41:00,11.6,-5.7,29.95,West,270,2.0,2.0,45,0.00,,,0.00,0,Wunderground v.1.15,2013-02-05 10:41:00,
2013-02-05 05:46:00,11.3,-5.5,29.96,WNW,296,1.0,3.0,46,0.00,,,0.00,0,Wunderground v.1.15,2013-02-05 10:46:00,
2013-02-05 05:52:00,11.1,-5.2,29.96,NW,312,1.0,2.0,47,0.00,,,0.00,0,Wunderground v.1.15,2013-02-05 10:52:00,
2013-02-05 05:57:00,10.9,-5.0,29.96,West,260,0.0,2.0,48,0.00,,,0.00,0,Wunderground v.1.15,2013-02-05 10:57:00,
2013-02-05 06:02:00,10.8,-5.1,29.96,West,267,1.0,1.0,48,0.00,,,0.00,0,Wunderground v.1.15,2013-02-05 11:02:00,
2013-02-05 06:08:00,10.7,-5.2,29.96,West,265,1.0,2.0,48,0.00,,,0.00,0,Wunderground v.1.15,2013-02-05 11:08:00,
2013-02-05 06:14:00,10.5,-4.9,29.96,West,265,0.0,0.0,49,0.00,,,0.00,0,Wunderground v.1.15,2013-02-05 11:14:00,
2013-02-05 06:19:00,10.3,-5.1,29.96,WNW,293,0.0,4.0,49,0.00,,,0.00,0,Wunderground v.1.15,2013-02-05 11:19:00,
2013-02-05 06:24:00,10.1,-5.7,29.97,WNW,293,0.0,0.0,48,0.00,,,0.00,0,Wunderground v.1.15,2013-02-05 11:24:00,
2013-02-05 06:30:00,10.0,-5.8,29.97,WNW,284,0.0,0.0,48,0.00,,,0.00,0,Wunderground v.1.15,2013-02-05 11:30:00,
2013-02-05 06:35:00,10.1,-5.3,29.97,WNW,284,0.0,0.0,49,0.00,,,0.00,0,Wunderground v.1.15,2013-02-05 11:35:00,
2013-02-05 06:41:00,9.9,-5.5,29.98,WNW,284,0.0,0.0,49,0.00,,,0.00,0,Wunderground v.1.15,2013-02-05 11:41:00,
2013-02-05 06:46:00,10.0,-5.4,29.98,WNW,284,0.0,0.0,49,0.00,,,0.00,0,Wunderground v.1.15,2013-02-05 11:46:00,
2013-02-05 06:51:00,10.0,-4.6,29.98,WNW,284,0.0,0.0,51,0.00,,,0.00,5,Wunderground v.1.15,2013-02-05 11:51:00,
2013-02-05 06:57:00,10.0,-5.0,29.98,WNW,284,0.0,0.0,50,0.00,,,0.00,7,Wunderground v.1.15,2013-02-05 11:57:00,
2013-02-05 07:02:00,9.7,-4.8,29.98,WNW,284,0.0,0.0,51,0.00,,,0.00,11,Wunderground v.1.15,2013-02-05 12:02:00,
2013-02-05 07:08:00,9.5,-5.4,29.99,WNW,284,0.0,0.0,50,0.00,,,0.00,12,Wunderground v.1.15,2013-02-05 12:08:00,
2013-02-05 07:14:00,9.4,-5.5,29.99,WNW,284,0.0,0.0,50,0.00,,,0.00,14,Wunderground v.1.15,2013-02-05 12:14:00,
2013-02-05 07:20:00,9.3,-5.6,30.00,WNW,284,0.0,0.0,50,0.00,,,0.00,18,Wunderground v.1.15,2013-02-05 12:20:00,
2013-02-05 07:26:00,9.3,-5.6,30.00,WNW,284,0.0,0.0,50,0.00,,,0.00,19,Wunderground v.1.15,2013-02-05 12:26:00,
2013-02-05 07:31:00,9.2,-5.3,30.00,WNW,284,0.0,0.0,51,0.00,,,0.00,23,Wunderground v.1.15,2013-02-05 12:31:00,
2013-02-05 07:37:00,9.3,-4.8,30.00,WNW,284,0.0,0.0,52,0.00,,,0.00,30,Wunderground v.1.15,2013-02-05 12:37:00,
2013-02-05 07:42:00,9.8,-4.7,30.00,WNW,284,0.0,0.0,51,0.00,,,0.00,40,Wunderground v.1.15,2013-02-05 12:42:00,
2013-02-05 07:48:00,10.0,-3.4,30.01,WNW,284,0.0,0.0,54,0.00,,,0.00,53,Wunderground v.1.15,2013-02-05 12:48:00,
2013-02-05 07:53:00,10.6,-3.6,30.01,WNW,284,0.0,0.0,52,0.00,,,0.00,65,Wunderground v.1.15,2013-02-05 12:53:00,
2013-02-05 07:59:00,11.2,-4.3,30.01,WNW,284,0.0,1.0,49,0.00,,,0.00,83,Wunderground v.1.15,2013-02-05 12:59:00,
2013-02-05 08:05:00,11.6,-3.9,30.01,WNW,284,0.0,1.0,49,0.00,,,0.00,100,Wunderground v.1.15,2013-02-05 13:05:00,
2013-02-05 08:10:00,12.0,-4.0,30.01,NW,319,0.0,2.0,48,0.00,,,0.00,114,Wunderground v.1.15,2013-02-05 13:10:00,
2013-02-05 08:15:00,12.4,-4.0,30.02,WNW,298,0.0,2.0,47,0.00,,,0.00,128,Wunderground v.1.15,2013-02-05 13:15:00,
2013-02-05 08:20:00,12.6,-3.9,30.02,WNW,299,1.0,1.0,47,0.00,,,0.00,139,Wunderground v.1.15,2013-02-05 13:20:00,
2013-02-05 08:26:00,13.0,-3.9,30.02,NNW,338,1.0,7.0,46,0.00,,,0.00,156,Wunderground v.1.15,2013-02-05 13:26:00,
2013-02-05 08:33:00,13.2,-4.2,30.02,NW,313,2.0,5.0,45,0.00,,,0.00,163,Wunderground v.1.15,2013-02-05 13:33:00,
2013-02-05 08:38:00,13.2,-4.2,30.02,North,355,2.0,8.0,45,0.00,,,0.00,185,Wunderground v.1.15,2013-02-05 13:38:00,
2013-02-05 08:44:00,14.0,-3.5,30.02,North,355,2.0,3.0,45,0.00,,,0.00,211,Wunderground v.1.15,2013-02-05 13:44:00,
2013-02-05 08:49:00,13.7,-4.7,30.02,West,279,2.0,5.0,43,0.00,,,0.00,220,Wunderground v.1.15,2013-02-05 13:49:00,
2013-02-05 08:54:00,13.8,-4.6,30.02,NW,312,3.0,3.0,43,0.00,,,0.00,258,Wunderground v.1.15,2013-02-05 13:54:00,
2013-02-05 09:00:00,14.0,-4.4,30.02,WNW,290,3.0,3.0,43,0.00,,,0.00,211,Wunderground v.1.15,2013-02-05 14:00:00,
2013-02-05 09:05:00,14.4,-3.6,30.02,WSW,253,2.0,8.0,44,0.00,,,0.00,285,Wunderground v.1.15,2013-02-05 14:05:00,
2013-02-05 09:10:00,15.0,-3.5,30.02,WNW,293,1.0,2.0,43,0.00,,,0.00,229,Wunderground v.1.15,2013-02-05 14:10:00,
2013-02-05 09:16:00,15.2,-3.3,30.02,North,355,1.0,3.0,43,0.00,,,0.00,292,Wunderground v.1.15,2013-02-05 14:16:00,
2013-02-05 09:22:00,14.7,-4.3,30.03,NW,304,2.0,7.0,42,0.00,,,0.00,193,Wunderground v.1.15,2013-02-05 14:22:00,
2013-02-05 09:28:00,14.5,-4.5,30.03,NW,312,3.0,7.0,42,0.00,,,0.00,241,Wunderground v.1.15,2013-02-05 14:28:00,
2013-02-05 09:33:00,14.6,-4.4,30.03,West,278,3.0,8.0,42,0.00,,,0.00,211,Wunderground v.1.15,2013-02-05 14:33:00,
2013-02-05 09:38:00,14.6,-3.9,30.03,NW,317,3.0,8.0,43,0.00,,,0.00,209,Wunderground v.1.15,2013-02-05 14:38:00,
2013-02-05 09:44:00,14.5,-5.0,30.03,NW,304,4.0,5.0,41,0.00,,,0.00,232,Wunderground v.1.15,2013-02-05 14:44:00,
2013-02-05 09:50:00,15.0,-4.0,30.03,WNW,288,4.0,4.0,42,0.00,,,0.00,258,Wunderground v.1.15,2013-02-05 14:50:00,
2013-02-05 09:56:00,15.3,-3.7,30.03,NW,324,3.0,8.0,42,0.00,,,0.00,371,Wunderground v.1.15,2013-02-05 14:56:00,
2013-02-05 10:02:00,15.8,-3.8,30.03,WNW,290,3.0,3.0,41,0.00,,,0.00,323,Wunderground v.1.15,2013-02-05 15:02:00,
2013-02-05 10:07:00,16.2,-3.4,30.03,WNW,297,2.0,3.0,41,0.00,,,0.00,381,Wunderground v.1.15,2013-02-05 15:07:00,
2013-02-05 10:13:00,16.0,-4.1,30.03,NNW,329,3.0,6.0,40,0.00,,,0.00,387,Wunderground v.1.15,2013-02-05 15:13:00,
2013-02-05 10:18:00,16.7,-3.0,30.03,West,261,3.0,6.0,41,0.00,,,0.00,390,Wunderground v.1.15,2013-02-05 15:18:00,
2013-02-05 10:23:00,17.2,-3.0,30.03,NW,312,1.0,3.0,40,0.00,,,0.00,397,Wunderground v.1.15,2013-02-05 15:23:00,
2013-02-05 10:29:00,17.1,-3.1,30.03,WSW,257,2.0,5.0,40,0.00,,,0.00,403,Wunderground v.1.15,2013-02-05 15:29:00,
2013-02-05 10:34:00,18.0,-2.3,30.02,WSW,257,2.0,8.0,40,0.00,,,0.00,410,Wunderground v.1.15,2013-02-05 15:34:00,
2013-02-05 10:39:00,17.7,-3.1,30.03,WNW,288,2.0,8.0,39,0.00,,,0.00,417,Wunderground v.1.15,2013-02-05 15:39:00,
2013-02-05 10:45:00,17.6,-3.2,30.03,NNW,333,2.0,2.0,39,0.00,,,0.00,422,Wunderground v.1.15,2013-02-05 15:45:00,
2013-02-05 10:50:00,17.6,-3.2,30.03,North,5,2.0,2.0,39,0.00,,,0.00,424,Wunderground v.1.15,2013-02-05 15:50:00,
2013-02-05 10:55:00,18.0,-2.8,30.03,WNW,285,3.0,6.0,39,0.00,,,0.00,429,Wunderground v.1.15,2013-02-05 15:55:00,
2013-02-05 11:01:00,17.8,-3.0,30.03,NW,321,3.0,3.0,39,0.00,,,0.00,432,Wunderground v.1.15,2013-02-05 16:01:00,
2013-02-05 11:07:00,19.0,-3.6,30.02,WNW,293,2.0,4.0,36,0.00,,,0.00,438,Wunderground v.1.15,2013-02-05 16:07:00,
2013-02-05 11:12:00,18.4,-3.6,30.02,West,270,2.0,2.0,37,0.00,,,0.00,441,Wunderground v.1.15,2013-02-05 16:12:00,
2013-02-05 11:18:00,18.4,-4.7,30.02,North,355,3.0,5.0,35,0.00,,,0.00,445,Wunderground v.1.15,2013-02-05 16:18:00,
2013-02-05 11:24:00,19.1,-3.0,30.02,WNW,294,3.0,3.0,37,0.00,,,0.00,446,Wunderground v.1.15,2013-02-05 16:24:00,
2013-02-05 11:29:00,19.8,-3.5,30.02,SW,234,1.0,3.0,35,0.00,,,0.00,450,Wunderground v.1.15,2013-02-05 16:29:00,
2013-02-05 11:34:00,20.2,-3.1,30.01,WSW,254,2.0,3.0,35,0.00,,,0.00,450,Wunderground v.1.15,2013-02-05 16:34:00,
2013-02-05 11:39:00,20.0,-3.9,30.01,NW,306,2.0,3.0,34,0.00,,,0.00,450,Wunderground v.1.15,2013-02-05 16:39:00,
2013-02-05 11:45:00,19.4,-4.5,30.01,WNW,298,2.0,2.0,34,0.00,,,0.00,450,Wunderground v.1.15,2013-02-05 16:45:00,
2013-02-05 11:51:00,20.3,-2.5,30.00,SW,219,1.0,1.0,36,0.00,,,0.00,452,Wunderground v.1.15,2013-02-05 16:51:00,
2013-02-05 11:57:00,21.1,-3.6,30.01,West,263,1.0,6.0,33,0.00,,,0.00,454,Wunderground v.1.15,2013-02-05 16:57:00,
2013-02-05 12:03:00,21.1,-4.2,30.00,West,265,2.0,3.0,32,0.00,,,0.00,452,Wunderground v.1.15,2013-02-05 17:03:00,
2013-02-05 12:08:00,20.7,-4.6,30.00,West,269,2.0,4.0,32,0.00,,,0.00,450,Wunderground v.1.15,2013-02-05 17:08:00,
2013-02-05 12:14:00,21.2,-3.5,29.99,SW,229,1.0,2.0,33,0.00,,,0.00,448,Wunderground v.1.15,2013-02-05 17:14:00,
2013-02-05 12:20:00,21.6,-3.1,29.99,WSW,257,2.0,2.0,33,0.00,,,0.00,448,Wunderground v.1.15,2013-02-05 17:20:00,
2013-02-05 12:26:00,21.4,-3.9,30.00,ESE,109,2.0,4.0,32,0.00,,,0.00,443,Wunderground v.1.15,2013-02-05 17:26:00,
2013-02-05 12:31:00,21.3,-4.0,30.00,NNW,340,2.0,3.0,32,0.00,,,0.00,441,Wunderground v.1.15,2013-02-05 17:31:00,
2013-02-05 12:37:00,20.8,-4.5,29.99,WNW,292,3.0,6.0,32,0.00,,,0.00,439,Wunderground v.1.15,2013-02-05 17:37:00,
2013-02-05 12:42:00,21.4,-3.9,29.99,WNW,301,3.0,7.0,32,0.00,,,0.00,432,Wunderground v.1.15,2013-02-05 17:42:00,
2013-02-05 12:48:00,21.4,-3.9,29.99,WNW,302,2.0,7.0,32,0.00,,,0.00,427,Wunderground v.1.15,2013-02-05 17:48:00,
2013-02-05 12:53:00,21.8,-4.9,29.99,West,265,3.0,7.0,30,0.00,,,0.00,425,Wunderground v.1.15,2013-02-05 17:53:00,
2013-02-05 12:58:00,22.6,-2.9,29.99,West,275,2.0,7.0,32,0.00,,,0.00,422,Wunderground v.1.15,2013-02-05 17:58:00,
2013-02-05 13:03:00,22.4,-3.1,29.99,WSW,240,2.0,4.0,32,0.00,,,0.00,415,Wunderground v.1.15,2013-02-05 18:03:00,
2013-02-05 13:09:00,22.2,-5.3,29.99,NE,49,2.0,5.0,29,0.00,,,0.00,410,Wunderground v.1.15,2013-02-05 18:09:00,
2013-02-05 13:15:00,21.5,-5.2,29.99,NNE,26,2.0,7.0,30,0.00,,,0.00,404,Wunderground v.1.15,2013-02-05 18:15:00,
2013-02-05 13:20:00,22.0,-4.8,29.99,NNW,336,4.0,4.0,30,0.00,,,0.00,396,Wunderground v.1.15,2013-02-05 18:20:00,
2013-02-05 13:25:00,22.4,-4.4,30.00,West,277,4.0,6.0,30,0.00,,,0.00,388,Wunderground v.1.15,2013-02-05 18:25:00,
2013-02-05 13:31:00,22.2,-5.3,30.00,North,349,3.0,5.0,29,0.00,,,0.00,381,Wunderground v.1.15,2013-02-05 18:31:00,
2013-02-05 13:36:00,22.3,-4.5,30.00,West,273,2.0,5.0,30,0.00,,,0.00,374,Wunderground v.1.15,2013-02-05 18:36:00,
2013-02-05 13:41:00,22.9,-4.7,30.00,WSW,258,2.0,2.0,29,0.00,,,0.00,367,Wunderground v.1.15,2013-02-05 18:41:00,
2013-02-05 13:46:00,23.3,-3.6,29.99,WNW,301,2.0,4.0,30,0.00,,,0.00,364,Wunderground v.1.15,2013-02-05 18:46:00,
2013-02-05 13:51:00,22.4,-5.8,30.00,NNW,333,2.0,2.0,28,0.00,,,0.00,350,Wunderground v.1.15,2013-02-05 18:51:00,
2013-02-05 13:56:00,22.5,-5.0,29.99,WSW,253,2.0,4.0,29,0.00,,,0.00,343,Wunderground v.1.15,2013-02-05 18:56:00,
2013-02-05 14:02:00,22.9,-4.7,30.00,NW,324,2.0,3.0,29,0.00,,,0.00,332,Wunderground v.1.15,2013-02-05 19:02:00,
2013-02-05 14:07:00,22.5,-5.0,30.00,NW,315,2.0,4.0,29,0.00,,,0.00,325,Wunderground v.1.15,2013-02-05 19:07:00,
2013-02-05 14:12:00,23.4,-4.2,30.00,NW,313,2.0,4.0,29,0.00,,,0.00,313,Wunderground v.1.15,2013-02-05 19:12:00,
2013-02-05 14:18:00,23.2,-4.4,30.00,West,277,2.0,4.0,29,0.00,,,0.00,299,Wunderground v.1.15,2013-02-05 19:18:00,
2013-02-05 14:23:00,22.9,-4.7,29.99,NW,309,2.0,4.0,29,0.00,,,0.00,290,Wunderground v.1.15,2013-02-05 19:23:00,
2013-02-05 14:28:00,22.7,-4.9,30.00,North,349,2.0,4.0,29,0.00,,,0.00,278,Wunderground v.1.15,2013-02-05 19:28:00,
2013-02-05 14:33:00,23.0,-5.3,30.00,WNW,291,2.0,3.0,28,0.00,,,0.00,264,Wunderground v.1.15,2013-02-05 19:33:00,
2013-02-05 14:39:00,23.3,-4.3,30.00,WNW,286,2.0,3.0,29,0.00,,,0.00,250,Wunderground v.1.15,2013-02-05 19:39:00,
2013-02-05 14:45:00,23.4,-4.2,30.00,NW,317,2.0,3.0,29,0.00,,,0.00,234,Wunderground v.1.15,2013-02-05 19:45:00,
2013-02-05 14:51:00,23.2,-4.4,29.99,West,262,2.0,2.0,29,0.00,,,0.00,220,Wunderground v.1.15,2013-02-05 19:51:00,
2013-02-05 14:56:00,22.9,-6.2,29.99,WSW,255,1.0,2.0,27,0.00,,,0.00,204,Wunderground v.1.15,2013-02-05 19:56:00,
2013-02-05 15:01:00,23.1,-3.8,30.00,NNW,327,1.0,2.0,30,0.00,,,0.00,190,Wunderground v.1.15,2013-02-05 20:01:00,
2013-02-05 15:06:00,23.1,-5.2,30.00,West,268,1.0,2.0,28,0.00,,,0.00,176,Wunderground v.1.15,2013-02-05 20:06:00,
2013-02-05 15:12:00,23.3,-4.3,30.00,NW,316,1.0,4.0,29,0.00,,,0.00,158,Wunderground v.1.15,2013-02-05 20:12:00,
2013-02-05 15:18:00,22.9,-4.7,30.00,North,5,1.0,4.0,29,0.00,,,0.00,142,Wunderground v.1.15,2013-02-05 20:18:00,
2013-02-05 15:23:00,22.7,-4.9,30.00,North,5,1.0,3.0,29,0.00,,,0.00,125,Wunderground v.1.15,2013-02-05 20:23:00,
2013-02-05 15:29:00,22.4,-5.1,30.00,ENE,57,2.0,3.0,29,0.00,,,0.00,113,Wunderground v.1.15,2013-02-05 20:29:00,
2013-02-05 15:34:00,22.5,-4.3,30.00,East,82,1.0,2.0,30,0.00,,,0.00,98,Wunderground v.1.15,2013-02-05 20:34:00,
2013-02-05 15:39:00,22.5,-5.0,30.00,East,80,1.0,2.0,29,0.00,,,0.00,86,Wunderground v.1.15,2013-02-05 20:39:00,
2013-02-05 15:44:00,22.7,-4.9,29.99,East,80,1.0,2.0,29,0.00,,,0.00,74,Wunderground v.1.15,2013-02-05 20:44:00,
2013-02-05 15:50:00,22.9,-4.7,29.99,North,355,1.0,2.0,29,0.00,,,0.00,63,Wunderground v.1.15,2013-02-05 20:50:00,
2013-02-05 15:55:00,22.8,-4.8,29.99,NW,309,1.0,2.0,29,0.00,,,0.00,53,Wunderground v.1.15,2013-02-05 20:55:00,
2013-02-05 16:00:00,22.7,-4.9,29.99,WNW,297,1.0,1.0,29,0.00,,,0.00,40,Wunderground v.1.15,2013-02-05 21:00:00,
2013-02-05 16:05:00,22.6,-4.2,29.99,NNW,348,1.0,2.0,30,0.00,,,0.00,32,Wunderground v.1.15,2013-02-05 21:05:00,
2013-02-05 16:11:00,22.4,-5.1,29.99,NNE,15,1.0,1.0,29,0.00,,,0.00,23,Wunderground v.1.15,2013-02-05 21:11:00,
2013-02-05 16:16:00,22.3,-4.5,29.99,NNE,28,1.0,1.0,30,0.00,,,0.00,18,Wunderground v.1.15,2013-02-05 21:16:00,
2013-02-05 16:22:00,22.2,-4.6,29.99,ESE,121,1.0,1.0,30,0.00,,,0.00,16,Wunderground v.1.15,2013-02-05 21:22:00,
2013-02-05 16:28:00,21.9,-5.6,29.99,East,84,0.0,1.0,29,0.00,,,0.00,14,Wunderground v.1.15,2013-02-05 21:28:00,
2013-02-05 16:34:00,21.8,-4.9,29.99,East,84,0.0,0.0,30,0.00,,,0.00,12,Wunderground v.1.15,2013-02-05 21:34:00,
2013-02-05 16:40:00,21.7,-5.0,29.99,East,84,0.0,0.0,30,0.00,,,0.00,11,Wunderground v.1.15,2013-02-05 21:40:00,
2013-02-05 16:45:00,21.6,-4.4,29.99,East,84,0.0,0.0,31,0.00,,,0.00,7,Wunderground v.1.15,2013-02-05 21:45:00,
2013-02-05 16:51:00,21.5,-4.5,29.99,East,84,0.0,0.0,31,0.00,,,0.00,0,Wunderground v.1.15,2013-02-05 21:51:00,
2013-02-05 16:56:00,21.3,-4.0,29.99,East,84,0.0,0.0,32,0.00,,,0.00,0,Wunderground v.1.15,2013-02-05 21:56:00,
2013-02-05 17:02:00,20.7,-2.7,30.00,East,84,0.0,0.0,35,0.00,,,0.00,0,Wunderground v.1.15,2013-02-05 22:02:00,
2013-02-05 17:07:00,20.5,-1.7,29.99,ESE,111,0.0,3.0,37,0.00,,,0.00,0,Wunderground v.1.15,2013-02-05 22:07:00,
2013-02-05 17:13:00,20.3,1.3,30.00,ESE,121,1.0,2.0,43,0.00,,,0.00,0,Wunderground v.1.15,2013-02-05 22:13:00,
2013-02-05 17:18:00,20.0,1.5,29.99,ESE,119,1.0,2.0,44,0.00,,,0.00,0,Wunderground v.1.15,2013-02-05 22:18:00,
2013-02-05 17:24:00,19.7,2.2,29.99,ESE,117,1.0,1.0,46,0.00,,,0.00,0,Wunderground v.1.15,2013-02-05 22:24:00,
2013-02-05 17:29:00,19.5,3.0,30.00,SE,144,1.0,4.0,48,0.00,,,0.00,0,Wunderground v.1.15,2013-02-05 22:29:00,
2013-02-05 17:35:00,19.4,3.8,30.00,ESE,114,2.0,4.0,50,0.00,,,0.00,0,Wunderground v.1.15,2013-02-05 22:35:00,
2013-02-05 17:40:00,19.4,3.8,30.00,SE,145,2.0,2.0,50,0.00,,,0.00,0,Wunderground v.1.15,2013-02-05 22:40:00,
2013-02-05 17:45:00,19.5,3.9,30.00,SE,130,2.0,4.0,50,0.00,,,0.00,0,Wunderground v.1.15,2013-02-05 22:45:00,
2013-02-05 17:51:00,19.4,3.8,30.00,SE,130,2.0,2.0,50,0.00,,,0.00,0,Wunderground v.1.15,2013-02-05 22:51:00,
2013-02-05 17:56:00,19.3,4.1,30.00,East,101,2.0,2.0,51,0.00,,,0.00,0,Wunderground v.1.15,2013-02-05 22:56:00,
2013-02-05 18:02:00,19.0,4.2,30.00,ESE,123,1.0,3.0,52,0.00,,,0.00,0,Wunderground v.1.15,2013-02-05 23:02:00,
2013-02-05 18:08:00,18.9,4.1,30.00,SE,134,1.0,3.0,52,0.00,,,0.00,0,Wunderground v.1.15,2013-02-05 23:08:00,
2013-02-05 18:14:00,19.1,3.9,30.01,SE,135,2.0,4.0,51,0.00,,,0.00,0,Wunderground v.1.15,2013-02-05 23:14:00,
2013-02-05 18:19:00,19.0,3.8,30.00,East,98,2.0,4.0,51,0.00,,,0.00,0,Wunderground v.1.15,2013-02-05 23:19:00,
2013-02-05 18:25:00,18.7,4.0,30.01,ESE,105,1.0,2.0,52,0.00,,,0.00,0,Wunderground v.1.15,2013-02-05 23:25:00,
2013-02-05 18:30:00,18.6,4.3,30.01,ESE,102,1.0,1.0,53,0.00,,,0.00,0,Wunderground v.1.15,2013-02-05 23:30:00,
2013-02-05 18:36:00,18.6,4.3,30.00,ESE,104,1.0,2.0,53,0.00,,,0.00,0,Wunderground v.1.15,2013-02-05 23:36:00,
2013-02-05 18:42:00,18.7,4.4,30.00,ESE,117,1.0,2.0,53,0.00,,,0.00,0,Wunderground v.1.15,2013-02-05 23:42:00,
2013-02-05 18:48:00,18.8,4.1,30.00,ESE,104,1.0,2.0,52,0.00,,,0.00,0,Wunderground v.1.15,2013-02-05 23:48:00,
2013-02-05 18:54:00,18.5,4.2,30.00,ESE,112,1.0,3.0,53,0.00,,,0.00,0,Wunderground v.1.15,2013-02-05 23:54:00,
2013-02-05 19:00:00,18.4,4.1,30.00,East,91,1.0,1.0,53,0.00,,,0.00,0,Wunderground v.1.15,2013-02-06 00:00:00,
2013-02-05 19:06:00,18.3,4.4,30.00,East,92,1.0,1.0,54,0.00,,,0.00,0,Wunderground v.1.15,2013-02-06 00:06:00,
2013-02-05 19:11:00,18.3,4.4,30.00,ESE,108,1.0,1.0,54,0.00,,,0.00,0,Wunderground v.1.15,2013-02-06 00:11:00,
2013-02-05 19:17:00,18.4,4.1,30.00,ESE,104,1.0,3.0,53,0.00,,,0.00,0,Wunderground v.1.15,2013-02-06 00:17:00,
2013-02-05 19:23:00,18.5,3.8,29.99,ESE,122,1.0,4.0,52,0.00,,,0.00,0,Wunderground v.1.15,2013-02-06 00:23:00,
2013-02-05 19:28:00,18.5,3.8,29.99,ESE,102,1.0,4.0,52,0.00,,,0.00,0,Wunderground v.1.15,2013-02-06 00:28:00,
2013-02-05 19:34:00,18.4,3.7,29.99,East,80,1.0,1.0,52,0.00,,,0.00,0,Wunderground v.1.15,2013-02-06 00:34:00,
2013-02-05 19:40:00,18.4,3.7,29.99,ESE,108,1.0,1.0,52,0.00,,,0.00,0,Wunderground v.1.15,2013-02-06 00:40:00,
2013-02-05 19:45:00,18.3,3.6,30.00,East,96,1.0,1.0,52,0.00,,,0.00,0,Wunderground v.1.15,2013-02-06 00:45:00,
2013-02-05 19:51:00,17.9,4.0,30.00,East,93,0.0,0.0,54,0.00,,,0.00,0,Wunderground v.1.15,2013-02-06 00:51:00,
2013-02-05 19:57:00,16.4,5.3,30.00,East,93,0.0,0.0,61,0.00,,,0.00,0,Wunderground v.1.15,2013-02-06 00:57:00,
2013-02-05 20:03:00,15.3,5.3,30.00,East,93,0.0,0.0,64,0.00,,,0.00,0,Wunderground v.1.15,2013-02-06 01:03:00,
2013-02-05 20:08:00,14.7,5.1,30.01,North,9,0.0,2.0,65,0.00,,,0.00,0,Wunderground v.1.15,2013-02-06 01:08:00,
2013-02-05 20:13:00,14.6,5.6,30.01,North,9,1.0,1.0,67,0.00,,,0.00,0,Wunderground v.1.15,2013-02-06 01:13:00,
2013-02-05 20:19:00,15.4,5.0,30.01,ENE,78,0.0,1.0,63,0.00,,,0.00,0,Wunderground v.1.15,2013-02-06 01:19:00,
2013-02-05 20:24:00,16.2,4.7,30.01,ENE,69,0.0,0.0,60,0.00,,,0.00,0,Wunderground v.1.15,2013-02-06 01:24:00,
2013-02-05 20:29:00,15.9,4.4,30.01,ENE,69,0.0,0.0,60,0.00,,,0.00,0,Wunderground v.1.15,2013-02-06 01:29:00,
2013-02-05 20:36:00,15.1,5.1,30.01,ENE,69,0.0,0.0,64,0.00,,,0.00,0,Wunderground v.1.15,2013-02-06 01:36:00,
2013-02-05 20:41:00,14.6,5.3,30.01,ENE,69,0.0,0.0,66,0.00,,,0.00,0,Wunderground v.1.15,2013-02-06 01:41:00,
2013-02-05 20:46:00,14.6,4.6,30.01,ENE,69,0.0,0.0,64,0.00,,,0.00,0,Wunderground v.1.15,2013-02-06 01:46:00,
2013-02-05 20:52:00,15.5,3.7,30.01,ENE,75,0.0,1.0,59,0.00,,,0.00,0,Wunderground v.1.15,2013-02-06 01:52:00,
2013-02-05 20:58:00,16.2,2.4,30.01,East,88,1.0,1.0,54,0.00,,,0.00,0,Wunderground v.1.15,2013-02-06 01:58:00,
2013-02-05 21:04:00,16.4,2.2,30.01,East,88,0.0,1.0,53,0.00,,,0.00,0,Wunderground v.1.15,2013-02-06 02:04:00,
2013-02-05 21:10:00,16.6,1.6,30.01,East,87,1.0,1.0,51,0.00,,,0.00,0,Wunderground v.1.15,2013-02-06 02:10:00,
2013-02-05 21:15:00,16.6,1.6,30.01,East,87,1.0,1.0,51,0.00,,,0.00,0,Wunderground v.1.15,2013-02-06 02:15:00,
2013-02-05 21:21:00,16.4,1.4,30.01,East,81,0.0,1.0,51,0.00,,,0.00,0,Wunderground v.1.15,2013-02-06 02:21:00,
2013-02-05 21:26:00,16.2,1.6,30.01,East,81,0.0,1.0,52,0.00,,,0.00,0,Wunderground v.1.15,2013-02-06 02:26:00,
2013-02-05 21:32:00,16.1,1.9,30.01,East,81,0.0,0.0,53,0.00,,,0.00,0,Wunderground v.1.15,2013-02-06 02:32:00,
2013-02-05 21:37:00,15.9,1.4,30.01,East,81,0.0,1.0,52,0.00,,,0.00,0,Wunderground v.1.15,2013-02-06 02:37:00,
2013-02-05 21:43:00,15.9,1.4,30.01,East,81,1.0,1.0,52,0.00,,,0.00,0,Wunderground v.1.15,2013-02-06 02:43:00,
2013-02-05 21:49:00,15.9,1.4,30.01,East,81,0.0,1.0,52,0.00,,,0.00,0,Wunderground v.1.15,2013-02-06 02:49:00,
2013-02-05 21:54:00,15.9,0.9,30.00,East,81,0.0,1.0,51,0.00,,,0.00,0,Wunderground v.1.15,2013-02-06 02:54:00,
2013-02-05 22:00:00,15.9,0.9,30.00,East,81,0.0,1.0,51,0.00,,,0.00,0,Wunderground v.1.15,2013-02-06 03:00:00,
2013-02-05 22:06:00,15.9,1.4,30.00,East,81,0.0,1.0,52,0.00,,,0.00,0,Wunderground v.1.15,2013-02-06 03:06:00,
2013-02-05 22:12:00,15.6,1.9,30.00,East,81,0.0,0.0,54,0.00,,,0.00,0,Wunderground v.1.15,2013-02-06 03:12:00,
2013-02-05 22:17:00,15.2,3.8,30.00,East,81,0.0,0.0,60,0.00,,,0.00,0,Wunderground v.1.15,2013-02-06 03:17:00,
2013-02-05 22:23:00,15.0,3.2,30.00,East,81,0.0,0.0,59,0.00,,,0.00,0,Wunderground v.1.15,2013-02-06 03:23:00,
2013-02-05 22:29:00,15.2,3.1,30.00,East,81,0.0,1.0,58,0.00,,,0.00,0,Wunderground v.1.15,2013-02-06 03:29:00,
2013-02-05 22:35:00,14.7,2.9,30.00,East,81,0.0,1.0,59,0.00,,,0.00,0,Wunderground v.1.15,2013-02-06 03:35:00,
2013-02-05 22:41:00,14.3,2.6,30.00,East,81,0.0,0.0,59,0.00,,,0.00,0,Wunderground v.1.15,2013-02-06 03:41:00,
2013-02-05 22:46:00,14.1,2.7,30.00,NE,39,0.0,2.0,60,0.00,,,0.00,0,Wunderground v.1.15,2013-02-06 03:46:00,
2013-02-05 22:51:00,14.0,3.0,30.00,North,5,1.0,1.0,61,0.00,,,0.00,0,Wunderground v.1.15,2013-02-06 03:51:00,
2013-02-05 22:57:00,13.8,2.8,30.00,North,5,1.0,2.0,61,0.00,,,0.00,0,Wunderground v.1.15,2013-02-06 03:57:00,
2013-02-05 23:02:00,13.7,3.1,30.00,North,5,1.0,1.0,62,0.00,,,0.00,0,Wunderground v.1.15,2013-02-06 04:02:00,
2013-02-05 23:08:00,13.4,3.1,30.00,North,5,1.0,1.0,63,0.00,,,0.00,0,Wunderground v.1.15,2013-02-06 04:08:00,
2013-02-05 23:14:00,13.3,3.7,29.99,North,5,1.0,2.0,65,0.00,,,0.00,0,Wunderground v.1.15,2013-02-06 04:14:00,
2013-02-05 23:20:00,13.0,3.8,30.00,North,5,1.0,2.0,66,0.00,,,0.00,0,Wunderground v.1.15,2013-02-06 04:20:00,
2013-02-05 23:26:00,13.0,3.8,30.00,North,5,1.0,2.0,66,0.00,,,0.00,0,Wunderground v.1.15,2013-02-06 04:26:00,
2013-02-05 23:31:00,13.0,3.8,30.00,North,5,0.0,1.0,66,0.00,,,0.00,0,Wunderground v.1.15,2013-02-06 04:31:00,
2013-02-05 23:36:00,13.0,3.8,30.00,North,5,0.0,1.0,66,0.00,,,0.00,0,Wunderground v.1.15,2013-02-06 04:36:00,
2013-02-05 23:42:00,13.0,3.8,30.00,North,5,1.0,2.0,66,0.00,,,0.00,0,Wunderground v.1.15,2013-02-06 04:42:00,
2013-02-05 23:47:00,12.7,3.5,30.00,North,5,1.0,2.0,66,0.00,,,0.00,0,Wunderground v.1.15,2013-02-06 04:47:00,
2013-02-05 23:53:00,12.7,3.5,30.00,North,5,1.0,2.0,66,0.00,,,0.00,0,Wunderground v.1.15,2013-02-06 04:53:00,
2013-02-05 23:58:00,12.5,3.9,29.99,North,5,1.0,2.0,68,0.00,,,0.00,0,Wunderground v.1.15,2013-02-06 04:58:00,